Elkins, WV

10:58 AM EST on February 20, 2018 (GMT -0500)
Elkins-Randolph County

Weather History for KEKN - February, 2012

Change the Weather History Date:

Friday, February 3, 2012

  Actual Average Record
Temperature  
Mean Temperature 37 °F 30 °F  
Max Temperature 53 °F 40 °F 63 °F (2016)
Min Temperature 21 °F 20 °F -13 °F (1905)
Degree Days  
Heating Degree Days 28 35  
Month to date heating degree days 71 105  
Since 1 July heating degree days 2971 3506  
Cooling Degree Days 0 0  
Month to date cooling degree days 0 0  
Year to date cooling degree days 0 0  
Moisture  
Dew Point 22 °F    
Average Humidity 60    
Maximum Humidity 92    
Minimum Humidity 28    
Precipitation  
Precipitation 0.00 in 0.10 in 1.89 in (1939)
Month to date precipitation 0.32 0.32  
Year to date precipitation 2.11 3.55  
Snow  
Snow 0.00 in 0.70 in 4.40 in (2013)
Month to date snowfall 0.0 2.2  
Since 1 September snowfall 20.2 49.0  
Snow Depth 0.00 in    
Sea Level Pressure  
Sea Level Pressure 30.45 in    
Wind  
Wind Speed 0 mph (North)    
Max Wind Speed 6 mph    
Max Gust Speed 9 mph    
Visibility 6 miles    
Events Fog    
T = Trace of Precipitation, MM = Missing Value Source: NWS Daily Summary

Daily Weather History Graph

Daily Weather History Graph

Search for Another Location

Airport or City:

Trip Planner

Search our weather history database for the weather conditions in past years. The results will help you decide how hot, cold, wet, or windy it might be!

Date:

Astronomy

Feb. 03, 2012 Rise Set
Actual Time 7:24 AM EST 5:42 PM EST
Civil Twilight 6:56 AM EST 6:10 PM EST
Nautical Twilight 6:24 AM EST 6:42 PM EST
Astronomical Twilight 5:53 AM EST 7:13 PM EST
Moon 1:43 PM EST (2/3) 3:57 AM EST (2/3)
Length of Visible Light 11h 14m
Length of Day
10h 18m
Waxing Gibbous, 81% of the Moon is Illuminated
Feb 3
Waxing Gibbous
Feb 7
Full
Feb 14
Last Quarter
Feb 21
New
Feb 29
First Quarter

Hourly Weather History & Observations

Time (EST) Temp. Dew Point Humidity Pressure Visibility Wind Dir Wind Speed Gust Speed Precip Events Conditions
12:51 AM 26.1 °F 24.1 °F 92% 30.43 in 7.0 mi Calm Calm - N/A   Clear
1:51 AM 25.0 °F 23.0 °F 92% 30.45 in 6.0 mi Calm Calm - N/A   Clear
2:51 AM 24.1 °F 21.9 °F 91% 30.47 in 5.0 mi Calm Calm - N/A   Clear
3:51 AM 24.1 °F 21.9 °F 91% 30.48 in 6.0 mi Calm Calm - N/A   Clear
4:51 AM 21.9 °F 19.0 °F 89% 30.49 in 6.0 mi Calm Calm - N/A   Clear
4:54 AM 23.0 °F 19.4 °F 86% 30.41 in 2.5 mi Calm Calm - N/A   Partly Cloudy
4:59 AM 23.0 °F 19.4 °F 86% 30.42 in 0.8 mi Calm Calm - N/A   Mist
5:12 AM 23.0 °F 21.2 °F 93% 30.42 in 0.2 mi Calm Calm - N/A Fog Light Freezing Fog
5:36 AM 21.2 °F 19.4 °F 93% 30.43 in 0.8 mi Calm Calm - N/A   Mist
5:39 AM 23.0 °F 19.4 °F 86% 30.44 in 2.5 mi Calm Calm - N/A   Mostly Cloudy
5:48 AM 21.2 °F 19.4 °F 93% 30.44 in 3.0 mi Calm Calm - N/A   Scattered Clouds
5:51 AM 21.9 °F 19.9 °F 92% 30.52 in 2.5 mi Calm Calm - N/A   Scattered Clouds
5:58 AM 21.2 °F 19.4 °F 93% 30.44 in 1.2 mi Calm Calm - N/A   Partly Cloudy
6:03 AM 21.2 °F 19.4 °F 93% 30.44 in 3.0 mi Calm Calm - N/A   Partly Cloudy
6:51 AM 21.0 °F 18.0 °F 88% 30.53 in 6.0 mi Calm Calm - N/A   Clear
7:18 AM 21.2 °F 17.6 °F 86% 30.46 in 6.0 mi Calm Calm - N/A   Scattered Clouds
7:24 AM 21.2 °F 19.4 °F 93% 30.46 in 2.0 mi Calm Calm - N/A   Mostly Cloudy
7:26 AM 21.2 °F 19.4 °F 93% 30.46 in 0.8 mi Calm Calm - N/A   Mist
7:35 AM 21.2 °F 19.4 °F 93% 30.47 in 0.2 mi Calm Calm - N/A Fog Light Freezing Fog
7:51 AM 21.9 °F 19.0 °F 89% 30.55 in 0.2 mi Calm Calm - N/A Fog Light Freezing Fog
8:36 AM 24.8 °F 24.8 °F 100% 30.48 in 1.0 mi Calm Calm - N/A   Mist
8:47 AM 26.6 °F 24.8 °F 93% 30.48 in 2.0 mi Calm Calm - N/A   Scattered Clouds
8:51 AM 27.0 °F 25.0 °F 92% 30.56 in 2.0 mi Calm Calm - N/A   Partly Cloudy
9:02 AM 26.6 °F 24.8 °F 93% 30.48 in 4.0 mi Calm Calm - N/A   Clear
9:51 AM 30.0 °F 28.0 °F 92% 30.55 in 5.0 mi Calm Calm - N/A   Clear
10:51 AM 36.0 °F 30.9 °F 82% 30.53 in 9.0 mi Calm Calm - N/A   Clear
11:51 AM 44.1 °F 27.0 °F 51% 30.50 in 10.0 mi Calm Calm - N/A   Clear
12:51 PM 46.9 °F 25.0 °F 42% 30.46 in 10.0 mi Calm Calm - N/A   Clear
1:51 PM 48.0 °F 21.9 °F 36% 30.43 in 10.0 mi Calm Calm - N/A   Clear
2:51 PM 51.1 °F 21.0 °F 31% 30.41 in 10.0 mi Calm Calm - N/A   Clear
3:51 PM 53.1 °F 21.0 °F 29% 30.39 in 10.0 mi Calm Calm - N/A   Clear
4:51 PM 52.0 °F 21.9 °F 31% 30.38 in 10.0 mi Calm Calm - N/A   Clear
5:51 PM 39.9 °F 26.1 °F 58% 30.40 in 10.0 mi Calm Calm - N/A   Clear
6:51 PM 32.0 °F 26.1 °F 79% 30.44 in 10.0 mi Calm Calm - N/A   Clear
7:51 PM 30.9 °F 26.1 °F 82% 30.43 in 10.0 mi Calm Calm - N/A   Clear
8:51 PM 28.9 °F 25.0 °F 85% 30.42 in 10.0 mi Calm Calm - N/A   Clear
9:51 PM 27.0 °F 24.1 °F 89% 30.40 in 10.0 mi Calm Calm - N/A   Clear
10:51 PM 27.0 °F 24.1 °F 89% 30.38 in 10.0 mi Calm Calm - N/A   Clear
11:51 PM 26.1 °F 23.0 °F 88% 30.36 in 10.0 mi Calm Calm - N/A   Clear